Regional Weather Roundup
Issued by NWS

Home | Current Version | Previous Version | Text Only | Print | Product List | Glossary On
Versions: 1 2 3 4 5 6 7 8 9 10 11 12 13 14 15 16 17 18 19 20 21 22 23 24 25 26 27 28 29 30 31 32 33 34 35 36 37 38 39 40 41 42 43 44 45 46 47 48 49 50
000
ASUS43 KMPX 052210
RWRMN
WEATHER ROUNDUP FOR MINNESOTA
NATIONAL WEATHER SERVICE TWIN CITIES/CHANHASSEN MN
500 PM CDT TUE MAY 05 2015


NOTE: "FAIR" INDICATES FEW OR NO CLOUDS BELOW 12,000 FEET WITH NO
SIGNIFICANT WEATHER AND/OR OBSTRUCTIONS TO VISIBILITY. N/A MEANS
CURRENT SKY AND/OR WEATHER CONDITIONS ARE NOT AVAILABLE.

MNZ060>063-068>070-052300-
   Twin Cities Metro

CITY           SKY/WX    TMP DP  RH WIND       PRES   REMARKS
TWIN CITIES    CLOUDY    66  49  54 SE14G22   30.14F
ST PAUL        CLOUDY    65  48  54 SE16G24   30.14F
CRYSTAL        CLOUDY    69  47  45 SE13G23   30.12F
LAKEVILLE      CLOUDY    64  52  63 SE12      30.13F
EDEN PRAIRIE   CLOUDY    65  50  58 SE17      30.12F
SOUTH ST PAUL  CLOUDY    65  47  51 SE7       30.14F
LAKE ELMO      FAIR      66  43  42 SE15      30.16S
$$
MNZ001>005-007-008-013>017-022>024-027-028-052300-
   Northwest Minnesota

CITY           SKY/WX    TMP DP  RH WIND       PRES   REMARKS
BEMIDJI        SUNNY     73  30  20 SE13      30.07F
HALLOCK        SUNNY     79 -20   2 S17G26    29.99F
ROSEAU         SUNNY     75  12   9 SE9G16    30.04F
WARROAD        SUNNY     73  30  20 SE10G20   30.06F
THIEF RVR FALL SUNNY     75  19  12 SE15      30.02F
CROOKSTON      SUNNY     77  23  13 S16G25    30.00F
FOSSTON        SUNNY     75  21  13 S14G25    30.04F
DETROIT LAKES  SUNNY     75  34  22 S18G26    30.05F
MOORHEAD       SUNNY     79  34  19 SE20G25   30.00F
PARK RAPIDS    SUNNY     77  34  21 S20G25    30.06F
MAHNOMEN       FAIR      75  30  18 S9G23     30.03F
$$
MNZ006-009>011-018-025>026-052300-
   North Central Minnesota

CITY           SKY/WX    TMP DP  RH WIND       PRES   REMARKS
BAUDETTE       SUNNY     73  23  15 S8G20     30.07F
FLAG ISLAND    MOSUNNY   68  30  24 S3        30.06F
INTL FALLS     SUNNY     73  21  14 S9G17     30.09F
WASKISH        SUNNY     75  28  17 SE8       30.07F
BIG FORK       SUNNY     73  27  17 S13G18    30.10F
LONGVILLE      SUNNY     73  30  20 S13G18    30.09F
GRAND RAPIDS   SUNNY     72  28  20 SE12G18   30.11F
CRANE LAKE     SUNNY     72  10   9 SE7       30.14F
COOK           SUNNY     72  25  17 SE9G21    30.13F
WALKER         FAIR      72  33  23 SE8       30.08F
$$
MNZ012-019>021-037-052300-
   Northeast Minnesota

CITY           SKY/WX    TMP DP  RH WIND       PRES   REMARKS
DULUTH         SUNNY     70  29  21 E12       30.15F
ELY            SUNNY     70  19  14 SE14      30.15F
HIBBING        SUNNY     74  29  19 SE12G18   30.11F
EVELETH        SUNNY     72  30  21 S12G17    30.14F
DULUTH HARBOR  SUNNY     50  36  57 NE3       30.18F
TWO HARBORS    SUNNY     72  39  30 E13       30.15F
SILVER BAY     SUNNY     66  27  22 NE10      30.16F
GRAND MARAIS     N/A     51  29  42 NE6       30.21F
G MARAIS ARPRT SUNNY     64  19  17 S6        30.23F
$$
MNZ029>031-032-039>041-046>048-054>057-064-052300-
   West Central Minnesota

CITY           SKY/WX    TMP DP  RH WIND       PRES   REMARKS
FERGUS FALLS   PTSUNNY   73  46  38 SE17G26   30.02F
WHEATON        MOSUNNY   72  48  43 SE26G32   30.01F
MORRIS         PTSUNNY   73  54  49 SE24      30.03F
ALEXANDRIA     PTSUNNY   71  47  42 SE25G31   30.07F
ELBOW LAKE     CLOUDY    73  48  41 SE23      30.02F
WADENA         SUNNY     73  43  33 SE18G25   30.05F
GLENWOOD       PTSUNNY   66  54  63 SE25G32   30.09S
APPLETON       PTSUNNY   72  54  53 SE14G23   30.03F
BENSON         CLOUDY    70  52  52 S16G22    30.05F
ORTONVILLE     CLOUDY    72  55  56 SE16G26   30.01F
MADISON        PTSUNNY   70  54  56 SE17      30.03F
WILLMAR        FAIR      68  54  60 SE22G28   30.09F
$$
MNZ033>034-036-042>043-049>051-058-059-052300-
   Central Minnesota

CITY           SKY/WX    TMP DP  RH WIND       PRES   REMARKS
ST CLOUD       CLOUDY    69  43  38 SE20      30.10F
SAUK CENTRE    CLOUDY    68  49  51 SE20      30.09S
PAYNESVILLE    PTSUNNY   64  51  63 E14G20    30.10F
AITKIN         SUNNY     75  28  17 S9G16     30.09F
PINE RIVER     SUNNY     73  43  33 S10G16    30.11F
BRAINERD       SUNNY     73  37  27 S17G28    30.09F
STAPLES        SUNNY     73  39  29 S16       30.07F
LONG PRAIRIE   CLOUDY    70  45  40 SE20G30   30.08F
LITTLE FALLS   MOSUNNY   72  41  33 SE15G21   30.09F
LITCHFIELD     CLOUDY    64  54  68 SE21      30.11F
BUFFALO        PTSUNNY   65  48  54 SE12G22   30.13F
MAPLE LAKE     CLOUDY    67  52  59 SE9G18    30.12F
$$
MNZ037-044-045-052-053-052300-
   East Central Minnesota

CITY           SKY/WX    TMP DP  RH WIND       PRES   REMARKS
PRINCETON      PTSUNNY   72  43  35 E18       30.12S
MORA           SUNNY     70  36  28 S14G23    30.14F
CAMBRIDGE      MOSUNNY   72  48  43 SE13G22   30.11F
RUSH CITY      MOSUNNY   70  36  28 SE15G24   30.13F
MOOSE LAKE     SUNNY     73  32  21 SE9G16    30.11F
HINCKLEY       FAIR      73  37  27 SE13      30.12F
CLOQUET        SUNNY     70  25  18 E8        30.14F
MCGREGOR       SUNNY     73  32  21 SE14G21   30.11F
$$
MNZ071>073-080-081-089-090-097-098-052300-
   Southwest Minnesota

CITY           SKY/WX    TMP DP  RH WIND       PRES   REMARKS
MONTEVIDEO     PTSUNNY   70  55  60 S23       30.05F
GRANITE FALLS  CLOUDY    65  54  66 E18G28    30.07F
CANBY          CLOUDY    67  55  65 SE17G25   30.04S
MARSHALL       CLOUDY    63  52  67 SE21G28   30.05F
REDWOOD FALLS  CLOUDY    62  53  72 SE17      30.08F
OLIVIA         PTSUNNY   63  50  63 SE20      30.08F
PIPESTONE      CLOUDY    61  57  88 SE13      30.04F
WORTHINGTON    CLOUDY    61  54  77 SE13      30.07F
JACKSON        CLOUDY    59  54  82 E13       30.08F FOG
TRACY          CLOUDY    62  56  79 SE16      30.07F
SLAYTON        CLOUDY    60  57  91 SE15      30.06F
$$
MNZ065>067-074>077-082>085-091>093-052300-
   South Central Minnesota

CITY           SKY/WX    TMP DP  RH WIND       PRES   REMARKS
MANKATO        CLOUDY    57  54  88 SE16      30.12F
NEW ULM        LGT RAIN  57  54  88 SE12      30.09F
ST JAMES       CLOUDY    57  54  88 E14       30.11F
FAIRMONT       CLOUDY    57  52  82 E15       30.09F
GLENCOE        CLOUDY    65  54  67 SE17      30.11F
FARIBAULT      RAIN      57  54  88 SE13      30.14F
OWATONNA       CLOUDY    55  52  88 SE13      30.14F
WASECA         LGT RAIN  55  54  94 SE14      30.14F
ALBERT LEA     RAIN      54  54 100 SE12G17   30.14S
$$
MNZ078>079-086>088-094>096-052300-
   Southeast Minnesota

CITY           SKY/WX    TMP DP  RH WIND       PRES   REMARKS
ROCHESTER      LGT RAIN  52  50  93 SE16      30.17F FOG
RED WING       CLOUDY    66  46  48 SE14G20   30.14F
STANTON        CLOUDY    64  52  64 SE10G22   30.13F
DODGE CENTER   LGT RAIN  54  54 100 SE16      30.16S
WINONA         CLOUDY    55  50  82 SE14      30.19S
AUSTIN         LGT RAIN  54  52  94 E10       30.15S
PRESTON        LGT RAIN  51  50  95 E10G17    30.18S
$$
ABBREVIATIONS USED IN REMARKS
   TC - TEMPERATURES IN CELSIUS
  WCI - WIND CHILL INDEX
   HX - HEAT INDEX
  VSB - VISIBILITY
$$



USA.gov is the U.S. government's official web portal to all federal, state and local government web resources and services.